Hourly Data Report for June 14, 2012

All times are specified in Local Standard Time (LST). Add 1 hour to adjust for Daylight Saving Time where and when it is observed.

MONCTON INTL A
NEW BRUNSWICK

46°06'44.000" N
64°40'43.000" W
70.70 m
8103201
71705
YQM

Download Data

Hourly Data (June 2012)
Hourly Data Report for June 14, 2012
Temp Definition
°C
Dew Point Temp Definition
°C
Rel Hum Definition
%
Wind Dir Definition
10's deg

Wind Spd Definition
km/h
Visibility Definition
km
Stn Press Definition
kPa
Hmdx Definition


Wind Chill Definition


Weather Definition


TIME
00:00 Legend Double Dagger 16.4 13.2 81 23 18 10.0 100.90     LegendNANA
01:00 Legend Double Dagger 16.1 13.3 83 23 17 10.0 100.92     LegendNANA
02:00 Legend Double Dagger 15.6 13.5 87 23 14 10.0 100.93     Mostly Cloudy
03:00 Legend Double Dagger 15.1 13.8 92 24 10 3.2 100.97     Rain Showers,Fog
04:00 Legend Double Dagger 14.6 14.3 98 24 10 3.2 101.01     Rain Showers,Fog
05:00 Legend Double Dagger 14.8 14.7 99 27 8 2.0 101.04     Rain Showers,Fog
06:00 Legend Double Dagger 15.0 14.7 98 34 10 2.8 101.12     Rain Showers,Fog,Haze
07:00 Legend Double Dagger 14.7 14.1 96 35 15 10.0 101.17     LegendNANA
08:00 Legend Double Dagger 14.2 13.6 96 33 22 2.4 101.22     Rain Showers,Fog
09:00 Legend Double Dagger 14.8 14.0 95 33 13 4.8 101.25     Rain Showers,Fog
10:00 Legend Double Dagger 14.9 13.6 92 35 15 10.0 101.29     LegendNANA
11:00 Legend Double Dagger 15.6 14.0 90 35 20 10.0 101.33     Cloudy
12:00 Legend Double Dagger 15.6 13.6 88 36 17 10.0 101.35     LegendNANA
13:00 Legend Double Dagger 15.6 13.6 88 1 17 10.0 101.38     LegendNANA
14:00 Legend Double Dagger 16.6 13.7 83 4 16 10.0 101.40     Mostly Cloudy
15:00 Legend Double Dagger 17.2 14.0 81 2 15 10.0 101.42     LegendNANA
16:00 Legend Double Dagger 18.4 13.5 73 3 20 10.0 101.41     LegendNANA
17:00 Legend Double Dagger 18.0 13.6 75 5 14 10.0 101.43     Mostly Cloudy
18:00 Legend Double Dagger 17.8 13.4 75 5 13 10.0 101.46     LegendNANA
19:00 Legend Double Dagger 16.5 11.7 73 5 18 10.0 101.52     LegendNANA
20:00 Legend Double Dagger 14.1 12.0 87 4 9 10.0 101.56     Mostly Cloudy
21:00 Legend Double Dagger 11.9 11.0 94 3 10 10.0 101.63     LegendNANA
22:00 Legend Double Dagger 11.2 10.6 96 3 10 10.0 101.69     LegendNANA
23:00 Legend Double Dagger 11.1 10.7 97 2 9 10.0 101.68     Mostly Cloudy

Notes on Data Quality.

Legend

  • E = Estimated
  • M = Missing
  • NA = Not Available
  • ‡ = Partner data that is not subject to review by the National Climate Archives
Date modified: